| time (UTC) | temp F | wind direction | speed knots | gust knots | rain 1hr in | rain 24hr in | rain mn in | humidity % | barometer mb |
| 20260505031511 | 52 | 224 | 0.0 | 5.2 | 0.00 | 0.00 | 0.00 | 1 | 1012.4 |
| 20260505030011 | 52 | 259 | 0.9 | 6.1 | 0.00 | 0.00 | 0.00 | 1 | 1012.5 |
| 20260505024511 | 52 | 207 | 0.9 | 6.1 | 0.00 | 0.00 | 0.00 | 1 | 1012.5 |
| 20260505023010 | 52 | 224 | 0.9 | 8.7 | 0.00 | 0.00 | 0.00 | 1 | 1012.5 |
| 20260505021509 | 52 | 255 | 0.0 | 6.1 | 0.00 | 0.00 | 0.00 | 1 | 1012.5 |
| 20260505020009 | 52 | 234 | 0.0 | 7.8 | 0.00 | 0.00 | 0.00 | 1 | 1012.5 |
| 20260505014505 | 52 | 226 | 1.7 | 7.8 | 0.00 | 0.00 | 0.00 | 1 | 1012.4 |
| 20260505013002 | 52 | 280 | 1.7 | 7.0 | 0.00 | 0.00 | 0.00 | 1 | 1012.4 |
| 20260505011559 | 52 | 249 | 2.6 | 7.8 | 0.00 | 0.00 | 0.00 | 1 | 1012.1 |
| 20260505010059 | 52 | 225 | 0.9 | 7.0 | 0.00 | 0.00 | 0.00 | 1 | 1012.1 |
| 20260505004552 | 52 | 230 | 1.7 | 8.7 | 0.00 | 0.00 | 0.00 | 1 | 1011.8 |
| 20260505003055 | 53 | 233 | 3.5 | 13.0 | 0.00 | 0.00 | 0.00 | 1 | 1011.4 |
| 20260505001542 | 53 | 277 | 1.7 | 10.4 | 0.00 | 0.00 | 0.00 | 1 | 1011.2 |
| 20260505000036 | 54 | 215 | 2.6 | 10.4 | 0.00 | 0.00 | 0.00 | 1 | 1011.0 |
| 20260504234531 | 55 | 232 | 2.6 | 10.4 | 0.00 | 0.00 | 0.00 | 1 | 1011.0 |
| 20260504233034 | 56 | 262 | 2.6 | 17.4 | 0.00 | 0.00 | 0.00 | 1 | 1010.8 |
| 20260504231525 | 56 | 143 | 4.3 | 13.9 | 0.00 | 0.00 | 0.00 | 1 | 1010.6 |
| 20260504230020 | 57 | 223 | 0.9 | 13.0 | 0.00 | 0.00 | 0.00 | 10 | 1010.5 |
| 20260504224518 | 57 | 249 | 3.5 | 9.6 | 0.00 | 0.00 | 0.00 | 18 | 1010.5 |
| 20260504223015 | 58 | 201 | 5.2 | 13.0 | 0.00 | 0.00 | 0.00 | 28 | 1010.4 |
| 20260504221506 | 59 | 205 | 4.3 | 14.8 | 0.00 | 0.00 | 0.00 | 40 | 1010.5 |
| 20260504220004 | 60 | 236 | 4.3 | 12.2 | 0.00 | 0.00 | 0.00 | 45 | 1010.4 |
| 20260504214558 | 61 | 288 | 3.5 | 16.5 | 0.00 | 0.00 | 0.00 | 46 | 1010.2 |
| 20260504213056 | 61 | 282 | 3.5 | 14.8 | 0.00 | 0.00 | 0.00 | 45 | 1010.2 |
| 20260504211633 | 61 | 247 | 4.3 | 15.6 | 0.00 | 0.00 | 0.00 | 46 | 1010.3 |
| 20260504210049 | 63 | 267 | 4.3 | 11.3 | 0.00 | 0.00 | 0.00 | 45 | 1010.2 |
| 20260504204542 | 63 | 196 | 1.7 | 14.8 | 0.00 | 0.00 | 0.00 | 45 | 1010.2 |
| 20260504203036 | 63 | 205 | 4.3 | 16.5 | 0.00 | 0.00 | 0.00 | 46 | 1009.9 |
| 20260504201531 | 63 | 254 | 7.0 | 17.4 | 0.00 | 0.00 | 0.00 | 45 | 1009.8 |
| 20260504200027 | 63 | 261 | 4.3 | 16.5 | 0.00 | 0.00 | 0.00 | 46 | 1010.1 |
| 20260504194523 | 63 | 275 | 7.0 | 19.1 | 0.00 | 0.00 | 0.00 | 46 | 1009.9 |
| 20260504193021 | 64 | 283 | 2.6 | 14.8 | 0.00 | 0.00 | 0.00 | 43 | 1009.9 |
| 20260504191513 | 64 | 192 | 6.1 | 14.8 | 0.00 | 0.00 | 0.00 | 43 | 1010.0 |
| 20260504190010 | 66 | 279 | 4.3 | 15.6 | 0.00 | 0.00 | 0.00 | 39 | 1010.3 |
| 20260504184506 | 66 | 229 | 5.2 | 18.2 | 0.00 | 0.00 | 0.00 | 39 | 1010.4 |
| 20260504183006 | 65 | 253 | 2.6 | 19.1 | 0.00 | 0.00 | 0.00 | 38 | 1010.5 |
| 20260504181602 | 66 | 211 | 4.3 | 13.0 | 0.00 | 0.00 | 0.00 | 41 | 1010.5 |
| 20260504180054 | 66 | 251 | 6.1 | 13.9 | 0.00 | 0.00 | 0.00 | 38 | 1010.7 |
| 20260504174548 | 66 | 288 | 4.3 | 10.4 | 0.00 | 0.00 | 0.00 | 38 | 1010.6 |
| 20260504173051 | 66 | 163 | 5.2 | 15.6 | 0.00 | 0.00 | 0.00 | 36 | 1010.5 |
| 20260504171541 | 66 | 271 | 4.3 | 13.9 | 0.00 | 0.00 | 0.00 | 36 | 1010.5 |
| 20260504081603 | 42 | 302 | 0.0 | 0.0 | 0.00 | 0.00 | 0.00 | 1 | 1012.3 |
| 20260504050005 | 38 | 302 | 0.0 | 0.0 | 0.00 | 0.00 | 0.00 | 1 | 1012.1 |
| 20260504044600 | 38 | 302 | 0.0 | 0.0 | 0.00 | 0.00 | 0.00 | 1 | 1012.2 |
| 20260504043101 | 39 | 302 | 0.0 | 0.0 | 0.00 | 0.00 | 0.00 | 1 | 1012.2 |
| 20260504041551 | 38 | 302 | 0.0 | 0.0 | 0.00 | 0.00 | 0.00 | 1 | 1012.1 |
| 20260504040100 | 38 | 302 | 0.0 | 0.0 | 0.00 | 0.00 | 0.00 | 1 | 1012.1 |
| 20260504034542 | 38 | 302 | 0.0 | 0.0 | 0.00 | 0.00 | 0.00 | 1 | 1011.9 |
| 20260504033038 | 38 | 302 | 0.0 | 0.0 | 0.00 | 0.00 | 0.00 | 1 | 1011.8 |